Location: Newark
(44.2003°N, 3.2583°E)
Time: 10:11:30
(UTC+00:00)

Transit 2A - All Passes

Search period start: 19 October 2019 00:00
Search period end: 29 October 2019 00:00
Orbit: 600 x 958 km, 66.7° (Epoch: 18 October)

Date Brightness Start Highest point End Pass type
(mag) Time Alt. Az. Time Alt. Az. Time Alt. Az.
19 Oct - 02:49:04 10° N 02:52:14 19° NE 02:55:20 10° E visible
19 Oct - 04:31:27 10° NW 04:35:45 59° WSW 04:40:01 10° SSE visible
19 Oct - 17:33:16 10° ESE 17:34:43 11° ESE 17:36:09 10° E visible
19 Oct - 19:11:44 10° SSW 19:17:15 80° ESE 19:22:13 10° NE visible
19 Oct - 20:57:13 10° W 21:00:54 19° NW 21:04:23 10° N visible
20 Oct - 02:15:27 10° N 02:17:50 14° NE 02:20:10 10° ENE visible
20 Oct - 03:57:16 10° NNW 04:01:40 89° NE 04:06:01 10° SSE visible
20 Oct - 18:37:47 10° SSW 18:43:10 55° ESE 18:48:02 10° NE visible
20 Oct - 20:22:13 10° WSW 20:26:35 25° NW 20:30:37 10° N visible
21 Oct - 01:42:28 10° NNE 01:43:23 11° NNE 01:44:17 10° NE night (unlit)
21 Oct - 03:23:12 10° NNW 03:27:33 59° NE 03:31:50 10° SE visible
21 Oct - 05:07:46 10° WNW 05:10:08 14° WSW 05:12:31 10° SW visible
21 Oct - 18:04:04 10° S 18:09:07 38° ESE 18:13:44 10° NE visible
21 Oct - 19:47:29 10° WSW 19:52:18 34° NW 19:56:45 10° NNE visible
22 Oct - 02:49:13 10° NNW 02:53:21 39° NE 02:57:26 10° ESE visible
22 Oct - 04:32:51 10° WNW 04:36:13 22° WSW 04:39:36 10° SSW visible
22 Oct - 17:30:37 10° SSE 17:35:06 26° ESE 17:39:17 10° NE visible
22 Oct - 19:12:54 10° SW 19:18:05 47° NW 19:22:49 10° NNE visible
22 Oct - 21:01:39 10° NW 21:02:22 10° NNW 21:03:05 10° NNW visible
23 Oct - 02:15:18 10° NNW 02:19:06 27° NE 02:22:50 10° ESE night (unlit)
23 Oct - 03:58:19 10° NW 04:02:15 34° WSW 04:06:12 10° S visible
23 Oct - 16:57:33 10° SSE 17:01:08 18° ESE 17:04:32 10° ENE daylight
23 Oct - 18:38:32 10° SW 18:43:55 67° WNW 18:48:48 10° NNE visible
23 Oct - 20:25:25 10° WNW 20:27:54 13° NW 20:30:18 10° N visible
24 Oct - 01:41:31 10° N 01:44:48 20° NE 01:48:01 10° E night (unlit)
24 Oct - 03:23:59 10° NW 03:28:14 53° WSW 03:32:29 10° SSE visible
24 Oct - 16:25:17 10° SE 16:27:13 12° ESE 16:29:06 10° E daylight
24 Oct - 18:04:21 10° SSW 18:09:47 86° ESE 18:14:43 10° NNE visible
24 Oct - 19:50:03 10° W 19:53:30 18° NW 19:56:45 10° N visible
25 Oct - 01:07:52 10° N 01:10:25 15° NE 01:12:55 10° ENE night (unlit)
25 Oct - 02:49:48 10° NNW 02:54:10 83° WSW 02:58:32 10° SSE night (unlit)
25 Oct - 17:30:21 10° SSW 17:35:42 60° ESE 17:40:33 10° NE visible
25 Oct - 19:15:01 10° W 19:19:09 23° NW 19:23:02 10° N visible
26 Oct - 00:34:40 10° NNE 00:35:58 11° NE 00:37:17 10° NE night (unlit)
26 Oct - 02:15:42 10° NNW 02:20:03 64° NE 02:24:23 10° SE night (unlit)
26 Oct - 04:00:33 10° WNW 04:02:36 13° WSW 04:04:39 10° SW night (unlit)
26 Oct - 16:56:35 10° S 17:01:39 41° ESE 17:06:16 10° NE daylight
26 Oct - 18:40:12 10° WSW 18:44:52 31° NW 18:49:11 10° NNE visible
27 Oct - 01:41:42 10° NNW 01:45:52 42° NE 01:50:01 10° SE night (unlit)
27 Oct - 03:25:28 10° WNW 03:28:42 20° WSW 03:31:55 10° SSW night (unlit)
27 Oct - 16:23:04 10° S 16:27:38 28° ESE 16:31:51 10° NE daylight
27 Oct - 18:05:36 10° SW 18:10:38 43° NW 18:15:16 10° NNE visible
28 Oct - 01:07:47 10° NNW 01:11:38 29° NE 01:15:28 10° ESE night (unlit)
28 Oct - 02:50:54 10° NW 02:54:44 31° WSW 02:58:36 10° S night (unlit)
28 Oct - 15:49:54 10° SSE 15:53:39 19° ESE 15:57:10 10° ENE daylight
28 Oct - 17:31:10 10° SW 17:36:28 62° NW 17:41:15 10° NNE visible
28 Oct - 19:18:23 10° WNW 19:20:30 12° NW 19:22:33 10° N visible
